Regional Weather Roundup
Issued by NWS Albany, NY

Home | Current Version | Previous Version | Text Only | Print | Product List | Glossary On
Versions: 1 2 3 4 5 6 7 8 9 10 11 12 13 14 15 16 17 18 19 20 21 22 23 24 25 26 27
000
ASUS41 KALY 041910
RWRALY

NEW YORK STATE HOURLY WEATHER ROUNDUP
NATIONAL WEATHER SERVICE ALBANY NY
200 PM EST SUN DEC 04 2016

NOTE: "FAIR" INDICATES FEW OR NO CLOUDS BELOW 12,000 FEET WITH NO
SIGNIFICANT WEATHER AND/OR NO OBSTRUCTIONS TO VISIBILITY.

NYZ032-033-038>043-046>054-057>066-NYZ062>081-082-084-042000-
EAST


CITY           SKY/WX    TMP DP  RH WIND       PRES   REMARKS
ALBANY         PTSUNNY   36  21  54 NW7       30.25F WCI  30
GLENS FALLS    CLOUDY    36  19  50 CALM      30.23F
POUGHKEEPSIE   SUNNY     40  22  48 N7        30.20F
NEWBURGH       SUNNY     41  25  52 VRB5      30.19F
MONTGOMERY     SUNNY     44  24  45 NE6       30.17F
WHITE PLAINS   SUNNY     42  22  44 N13       30.17F
ISLIP          PTSUNNY   43  23  45 N13       30.18S
NEW YORK CITY  PTSUNNY   47  21  35 NW6       30.18F
CENTRAL PARK   SUNNY     46  20  35 NW7       30.20F
$$

NYZ005>009-017-018-044>046-055-056-042000-
CENTRAL


CITY           SKY/WX    TMP DP  RH WIND       PRES   REMARKS
FULTON         MOSUNNY   36  23  59 NE3       30.23F
SYRACUSE       MOSUNNY   37  23  56 CALM      30.23F
ROME           SUNNY     33  22  63 N6        30.26F WCI  28
ELMIRA         SUNNY     40  22  48 E3        30.18F
BINGHAMTON     PTSUNNY   36  24  62 MISG      30.16F
MONTICELLO     SUNNY     37  19  48 NW6       30.16F WCI  33
$$

NYZ026>034-041>043-087-042000-
NORTH


CITY           SKY/WX    TMP DP  RH WIND       PRES   REMARKS
WATERTOWN      MOSUNNY   33  20  58 N3        30.26S
FORT DRUM      NOT AVBL
OGDENSBURG     PTSUNNY   32  22  67 CALM      30.26F
MASSENA        MOSUNNY   32  19  58 SW5       30.27S WCI  27
SARANAC LAKE   CLOUDY    24  18  77 CALM      30.17R
PLATTSBURGH    MOSUNNY   35  19  52 CALM      30.23F
$$

NYZ001>004-010>016-019>021-085-042000-
WEST


CITY           SKY/WX    TMP DP  RH WIND       PRES   REMARKS
NIAGARA FALLS  PTSUNNY   41  27  57 E6        30.18F
BUFFALO        PTSUNNY   40  27  59 E7        30.17F
DUNKIRK        CLOUDY    40  30  67 SE7       30.17F
JAMESTOWN      CLOUDY    36  28  75 E5        30.12F WCI  32
WELLSVILLE     CLOUDY    36  24  62 E5        30.13F WCI  32
ROCHESTER      PTSUNNY   40  27  59 VRB5      30.20F
PENN YAN       MOSUNNY   40  24  53 VRB3      30.19F
$$

             KEY
       WCI = WIND CHILL INDEX
       VSB = VISIBILITY
       HX  = HEAT INDEX
$$




USA.gov is the U.S. government's official web portal to all federal, state and local government web resources and services.